EN

Hourly Weather Abercarn

Today, 6 March, Saturday

Time Temperature Precipitation Wind Pressure Humidity
00:00 -2°C° 0 mm 2 mps 757 mmHg 80%
01:00 -2°C° 0 mm 2 mps 757 mmHg 81%
02:00 -2°C° 0 mm 2 mps 757 mmHg 81%
03:00 -3°C° 0 mm 2 mps 756 mmHg 81%
04:00 -3°C° 0 mm 2 mps 757 mmHg 83%
05:00 -3°C° 0 mm 2 mps 757 mmHg 84%
06:00 -3°C° 0 mm 2 mps 757 mmHg 87%
07:00 -2°C° 0 mm 2 mps 757 mmHg 82%
08:00 -1°C° 0 mm 2 mps 757 mmHg 77%
09:00 +2°C° 0 mm 2 mps 757 mmHg 72%
10:00 +3°C° 0 mm 2 mps 757 mmHg 67%
11:00 +3°C° 0 mm 3 mps 757 mmHg 63%
12:00 +4°C° 0 mm 3 mps 757 mmHg 58%
13:00 +4°C° 0 mm 3 mps 756 mmHg 58%
14:00 +5°C° 0 mm 2 mps 756 mmHg 58%
15:00 +6°C° 0 mm 2 mps 755 mmHg 57%
16:00 +4°C° 0 mm 2 mps 755 mmHg 63%
17:00 +3°C° 0 mm 2 mps 755 mmHg 70%
18:00 +2°C° 0 mm 2 mps 755 mmHg 76%
19:00 +2°C° 0 mm 1 mps 755 mmHg 79%
20:00 +1°C° 0 mm 1 mps 755 mmHg 81%
21:00 0°C° 0 mm 1 mps 755 mmHg 84%
22:00 0°C° 0 mm 1 mps 755 mmHg 84%
23:00 0°C° 0 mm 1 mps 754 mmHg 84%

Tomorrow, 7 March, Sunday

Time Temperature Precipitation Wind Pressure Humidity
00:00 0°C° 0 mm 1 mps 754 mmHg 84%
01:00 0°C° 0 mm 1 mps 754 mmHg 85%
02:00 -1°C° 0 mm 0 mps 753 mmHg 85%
03:00 -1°C° 0 mm 0 mps 753 mmHg 86%
04:00 -1°C° 0 mm 0 mps 753 mmHg 86%
05:00 -2°C° 0 mm 0 mps 753 mmHg 86%
06:00 -2°C° 0 mm 0 mps 753 mmHg 87%
07:00 0°C° 0 mm 0 mps 753 mmHg 81%
08:00 +1°C° 0 mm 0 mps 752 mmHg 75%
09:00 +3°C° 0 mm 1 mps 752 mmHg 70%
10:00 +4°C° 0 mm 1 mps 752 mmHg 65%
11:00 +6°C° 0 mm 1 mps 752 mmHg 61%
12:00 +7°C° 0 mm 1 mps 752 mmHg 57%
13:00 +6°C° 0 mm 2 mps 752 mmHg 59%
14:00 +6°C° 0 mm 2 mps 751 mmHg 61%
15:00 +6°C° 0 mm 2 mps 751 mmHg 62%
16:00 +5°C° 0 mm 2 mps 750 mmHg 68%
17:00 +5°C° 0 mm 1 mps 750 mmHg 74%
18:00 +4°C° 0 mm 1 mps 750 mmHg 80%
19:00 +3°C° 0 mm 1 mps 750 mmHg 82%
20:00 +3°C° 0 mm 1 mps 750 mmHg 83%
21:00 +2°C° 0 mm 1 mps 750 mmHg 85%
22:00 +2°C° 0 mm 1 mps 750 mmHg 86%
23:00 +2°C° 0 mm 1 mps 750 mmHg 87%

Day after tomorrow, 8 March, Monday

Time Temperature Precipitation Wind Pressure Humidity
00:00 +1°C° 0 mm 1 mps 750 mmHg 88%
01:00 +1°C° 0 mm 1 mps 750 mmHg 88%
02:00 +1°C° 0 mm 1 mps 749 mmHg 89%
03:00 0°C° 0 mm 0 mps 749 mmHg 89%
04:00 0°C° 0 mm 0 mps 749 mmHg 89%
05:00 0°C° 0 mm 0 mps 749 mmHg 89%
06:00 0°C° 0 mm 0 mps 749 mmHg 88%
07:00 +2°C° 0 mm 1 mps 749 mmHg 84%
08:00 +4°C° 0 mm 1 mps 749 mmHg 80%
09:00 +5°C° 0 mm 1 mps 749 mmHg 76%
10:00 +5°C° 0 mm 2 mps 749 mmHg 71%
11:00 +6°C° 0 mm 2 mps 749 mmHg 66%
12:00 +8°C° 0 mm 2 mps 749 mmHg 61%
13:00 +8°C° 0 mm 3 mps 749 mmHg 63%
14:00 +8°C° 0 mm 3 mps 748 mmHg 64%
15:00 +8°C° 0 mm 3 mps 748 mmHg 66%
16:00 +5°C° 0 mm 3 mps 748 mmHg 73%
17:00 +4°C° 0 mm 3 mps 748 mmHg 81%
18:00 +2°C° 0 mm 3 mps 747 mmHg 88%
19:00 +1°C° 0 mm 3 mps 748 mmHg 89%
20:00 +1°C° 0 mm 2 mps 748 mmHg 90%
21:00 +1°C° 0 mm 2 mps 748 mmHg 90%
22:00 +1°C° 0 mm 2 mps 748 mmHg 90%
23:00 -1°C° 0 mm 2 mps 748 mmHg 90%

9 March, Tuesday

Time Temperature Precipitation Wind Pressure Humidity
00:00 +1°C° 0 mm 1 mps 747 mmHg 90%
01:00 +1°C° 0 mm 1 mps 747 mmHg 90%
02:00 +2°C° 0 mm 1 mps 747 mmHg 90%
03:00 +2°C° 0 mm 1 mps 747 mmHg 90%
04:00 +2°C° 0 mm 1 mps 747 mmHg 91%
05:00 +1°C° 0 mm 2 mps 747 mmHg 92%
06:00 +2°C° 0 mm 2 mps 747 mmHg 92%
07:00 +2°C° 0 mm 2 mps 746 mmHg 91%
08:00 +3°C° 0 mm 2 mps 746 mmHg 90%
09:00 +3°C° 0 mm 3 mps 746 mmHg 88%
10:00 +4°C° 0 mm 3 mps 746 mmHg 86%
11:00 +5°C° 0 mm 3 mps 746 mmHg 84%
12:00 +7°C° 0 mm 3 mps 746 mmHg 82%
13:00 +6°C° 0 mm 4 mps 746 mmHg 84%
14:00 +6°C° 0 mm 4 mps 745 mmHg 86%
15:00 +6°C° 0 mm 4 mps 745 mmHg 89%
16:00 +5°C° 0.1 mm 5 mps 744 mmHg 89%
17:00 +5°C° 0.1 mm 5 mps 744 mmHg 90%
18:00 +4°C° 0.1 mm 6 mps 743 mmHg 91%
19:00 +4°C° 0 mm 6 mps 743 mmHg 91%
20:00 +4°C° 0 mm 7 mps 742 mmHg 91%
21:00 +4°C° 0 mm 7 mps 742 mmHg 91%
22:00 +4°C° 0.7 mm 8 mps 741 mmHg 92%
23:00 +4°C° 0.7 mm 8 mps 741 mmHg 93%

10 March, Wednesday

Time Temperature Precipitation Wind Pressure Humidity
00:00 +3°C° 0.7 mm 9 mps 740 mmHg 94%
01:00 +5°C° 1.4 mm 9 mps 739 mmHg 94%
02:00 +5°C° 1.4 mm 10 mps 738 mmHg 94%
03:00 +5°C° 1.4 mm 10 mps 737 mmHg 94%
04:00 +6°C° 1.2 mm 10 mps 737 mmHg 94%
05:00 +6°C° 1.2 mm 10 mps 737 mmHg 94%
06:00 +6°C° 1.2 mm 9 mps 736 mmHg 94%
07:00 +6°C° 0.1 mm 7 mps 736 mmHg 92%
08:00 +7°C° 0.1 mm 6 mps 736 mmHg 89%
09:00 +6°C° 0.1 mm 4 mps 736 mmHg 87%
10:00 +7°C° 0 mm 4 mps 736 mmHg 83%
11:00 +7°C° 0 mm 5 mps 736 mmHg 80%
12:00 +7°C° 0 mm 5 mps 736 mmHg 76%
13:00 +7°C° 0.4 mm 4 mps 735 mmHg 82%
14:00 +7°C° 0.4 mm 3 mps 734 mmHg 87%
15:00 +5°C° 0.4 mm 3 mps 733 mmHg 92%
16:00 +6°C° 0.4 mm 4 mps 733 mmHg 94%
17:00 +7°C° 0.4 mm 5 mps 732 mmHg 96%
18:00 +7°C° 0.4 mm 6 mps 731 mmHg 97%
19:00 +7°C° 0.3 mm 8 mps 730 mmHg 96%
20:00 +7°C° 0.3 mm 9 mps 730 mmHg 95%
21:00 +8°C° 0.3 mm 11 mps 729 mmHg 93%
22:00 +8°C° 1 mm 12 mps 728 mmHg 91%
23:00 +8°C° 1 mm 13 mps 728 mmHg 89%

11 March, Thursday

Time Temperature Precipitation Wind Pressure Humidity
00:00 +6°C° 1 mm 14 mps 727 mmHg 87%
01:00 +6°C° 0.1 mm 14 mps 726 mmHg 85%
02:00 +5°C° 0.1 mm 15 mps 726 mmHg 82%
03:00 +4°C° 0.1 mm 15 mps 725 mmHg 80%
04:00 +4°C° 0.1 mm 15 mps 725 mmHg 81%
05:00 +4°C° 0.1 mm 16 mps 724 mmHg 81%
06:00 +3°C° 0.1 mm 17 mps 724 mmHg 82%
07:00 +4°C° 0.2 mm 16 mps 724 mmHg 81%
08:00 +4°C° 0.2 mm 16 mps 725 mmHg 79%
09:00 +4°C° 0.2 mm 16 mps 726 mmHg 77%
10:00 +4°C° 0.2 mm 15 mps 727 mmHg 76%
11:00 +4°C° 0.2 mm 15 mps 728 mmHg 75%
12:00 +4°C° 0.2 mm 14 mps 729 mmHg 74%
13:00 +4°C° 0.1 mm 13 mps 730 mmHg 72%
14:00 +4°C° 0.1 mm 13 mps 730 mmHg 69%
15:00 +4°C° 0.1 mm 13 mps 731 mmHg 67%
16:00 +4°C° 0.1 mm 11 mps 731 mmHg 70%
17:00 +3°C° 0.1 mm 10 mps 732 mmHg 73%
18:00 +2°C° 0.1 mm 9 mps 732 mmHg 76%
19:00 +2°C° 0.1 mm 8 mps 732 mmHg 78%
20:00 +2°C° 0.1 mm 7 mps 733 mmHg 80%
21:00 +2°C° 0.1 mm 7 mps 733 mmHg 82%
22:00 +2°C° 0.1 mm 6 mps 733 mmHg 83%
23:00 +2°C° 0.1 mm 6 mps 733 mmHg 84%
Show more